Regional Weather Roundup
Issued by NWS Jackson, KY

Home | Current Version | Previous Version | Graphics & Text | Print | Product List | Glossary On
Versions: 1 2 3 4 5 6 7 8 9 10 11 12 13 14 15 16 17 18 19 20 21 22 23 24 25 26 27 28 29 30 31 32 33 34 35 36 37 38 39 40 41 42 43 44 45 46 47 48 49 50
000
ASUS43 KJKL 201011
RWRJKL

EAST KENTUCKY HOURLY WEATHER ROUNDUP
NATIONAL WEATHER SERVICE JACKSON KY
600 AM EDT SAT SEP 20 2014

NOTE: "FAIR" INDICATES FEW OR NO CLOUDS BELOW 12,000 FEET WITH
NO SIGNIFICANT WEATHER AND/OR OBSTRUCTIONS TO VISIBILITY.

* THESE REPORTS ARE NOT UNDER NWS QUALITY CONTROL AND MAY NOT
  REPORT WEATHER SUCH AS PRECIPITATION AND FOG.

KYZ079-080-083-085-087-088-110-112-115-119-120-201100
...EASTERN KENTUCKY...

CITY           SKY/WX    TMP DP  RH WIND       PRES   REMARKS
JACKSON        CLEAR     63  55  75 CALM      30.14S
LONDON         PTCLDY    62  55  77 CALM      30.15R
SOMERSET*      CLEAR     63  61  94 CALM      30.13S
MONTICELLO*    CLEAR     69  60  73 S7        30.13S
WILLIAMSBURG*  CLEAR     63  59  88 SE7       30.15
MIDDLESBORO*   CLEAR     59  57  91 CALM      30.17S
HARLAN APT*    MOSUNNY   63  54  72 MISG      30.18S
BLACK MTN*       N/A     54  54 100 SW5         N/A
PIKEVILLE APT* CLEAR     64  55  72 S5        30.16R
BIG SANDY*     MOSUNNY   65  57  77 SE9       30.14S
MOREHEAD APT*  CLOUDY    64  59  82 S7        30.13S
$$

KYZ035-036-041-042-044-050-067-078-099-201100
...CENTRAL KENTUCKY...

CITY           SKY/WX    TMP DP  RH WIND       PRES   REMARKS
MT STERLING*   MOCLDY    63  59  88 SW5       30.13R
FLEMING/MASON* MOCLDY    63  59  88 S6        30.12R
DANVILLE*      PTCLDY    61  59  94 S5        30.12R
RICHMOND*      PTCLDY    64  57  77 S6        30.11R
LEXINGTON      PTCLDY    66  60  81 S9        30.10R
FRANKFORT      PTCLDY    62  59  90 CALM      30.08R
$$

KYZ091>093-OHZ055-061-077-WVZ005-015-034-035-042-201100
...SOUTHERN OHIO/WEST VIRGINIA...

CITY           SKY/WX    TMP DP  RH WIND       PRES   REMARKS
COVINGTON      PTCLDY    60  57  89 S6        30.07R
COLUMBUS       PTCLDY    63  58  83 S3        30.08R
DAYTON         PTCLDY    59  54  83 S7        30.08R
WILMINGTON     PTCLDY    59  56  89 S6        30.08R
HUNTINGTON     PTCLDY    62  58  86 S5        30.12R
CHARLESTON     CLEAR     60  58  92 N3        30.15R
PINEVILLE*     CLEAR     56  56 100 MISG      30.25S FOG
BECKLEY        CLEAR     59  55  87 SE12G20   30.23S
BLUEFIELD      CLEAR     61  54  77 SE9G20    30.26R
$$

VAZ002-007-008-TNZ017-027-036-066-071-201100
...SOUTHWEST VIRGINIA/EAST TENNESSEE...

CITY           SKY/WX    TMP DP  RH WIND       PRES   REMARKS
WISE*          CLEAR     61  54  77 S8        30.23S
JONESVILLE*    MOSUNNY   55  55 100 CALM      30.21S
ABINGDON*      CLEAR     60  56  88 E6        30.23R
BRISTOL        CLEAR     57  53  86 CALM      30.20R
KNOXVILLE      CLEAR     61  60  97 CALM      30.14R
OAK RIDGE      FOG       62  60  93 CALM      30.17R VSB 3/4
CROSSVILLE     CLEAR     63  58  83 S3        30.17R
NASHVILLE      CLEAR     68  63  84 S6        30.09R
$$

...KEY TO REMARKS...
VSB - VISIBILITY IN MILES
WCI - WIND CHILL INDEX
HX  - HEAT INDEX

$$



USA.gov is the U.S. government's official web portal to all federal, state and local government web resources and services.